Location: Unspecified
(0.0000°N, 0.0000°E)
Time: 23:57:59
(UTC+00:00)

Envisat - Pass Details

Date: 21 July 2019
Orbit: 764 x 766 km, 98.1° (Epoch: 18 November)

Event Time Altitude Azimuth Distance (km) Brightness Sun altitude
Rises 18:34:21 0° 163° (SSE) 3,230 5.9 -6.5°
Reaches altitude 10° 18:36:41 10° 161° (SSE) 2,302 5.1 -7.1°
Maximum altitude 18:41:43 68° 78° (ENE) 823 3.0 -8.3°
Drops below altitude 10° 18:46:44 10° 356° (N) 2,291 5.8 -9.4°
Sets 18:49:02 0° 353° (N) 3,214 6.6 -10.0°
